Weather History for Terra Nova, NL

Change the Weather History Date:

Thursday, April 26, 2012

  Actual Average Record
Temperature  
Mean Temperature 54 °F -  
Max Temperature 62 °F - - ()
Min Temperature 45 °F - - ()
Degree Days  
Heating Degree Days 11    
Growing Degree Days 4 (Base 50)    
Moisture  
Dew Point 50 °F    
Average Humidity 89    
Maximum Humidity 100    
Minimum Humidity 65    
Precipitation  
Precipitation 0.02 in - - ()
Sea Level Pressure  
Sea Level Pressure 29.94 in    
Wind  
Wind Speed 10 mph ()    
Max Wind Speed 18 mph    
Max Gust Speed 33 mph    
T = Trace of Precipitation, MM = Missing Value Source: Averaged Metar Reports

Daily Weather History Graph

Daily Weather History Graph

Search for Another Location

Airport:

Trip Planner

Search our weather history database for the weather conditions in past years. The results will help you decide how hot, cold, wet, or windy it might be!

Date:

Astronomy

Apr. 26, 2012 Rise Set
Actual Time 5:54 AM NDT 8:13 PM NDT
Civil Twilight 5:19 AM NDT 8:48 PM NDT
Nautical Twilight 4:36 AM NDT 9:32 PM NDT
Astronomical Twilight 3:47 AM NDT 10:21 PM NDT
Moon 9:17 AM NDT 12:26 AM NDT
Length of Visible Light 15h 28m
Length of Day
14h 19m
Waxing Crescent, 23% of the Moon is Illuminated
Apr 26
Waxing Crescent
Apr 29
First Quarter
May 6
Full
May 12
Last Quarter
May 20
New

Hourly Weather History & Observations

Time (NDT) Temp. Windchill Dew Point Humidity Pressure Visibility Wind Dir Wind Speed Gust Speed Precip Events Conditions
12:30 AM 51.6 °F - 51.3 °F 99% 30.08 in - South 6.9 mph - N/A   Unknown
1:30 AM 51.6 °F - 51.3 °F 99% 30.05 in - SSE 10.4 mph 17.3 mph N/A   Unknown
2:30 AM 52.3 °F - 52.0 °F 99% 30.02 in - SSE 10.4 mph 19.6 mph N/A   Unknown
3:30 AM 53 °F - 52 °F 97% 29.99 in - SSE 11.5 mph - -  
3:30 AM 52.7 °F - 52.3 °F 99% 29.99 in - SSE 11.5 mph 18.4 mph N/A   Unknown
5:30 AM 53.4 °F - 53.1 °F 99% 29.96 in - SSE 11.5 mph 20.7 mph N/A   Unknown
6:30 AM 53.8 °F - 53.4 °F 99% 29.96 in - South 12.7 mph 23.0 mph N/A   Unknown
7:30 AM 53.6 °F - 53.2 °F 99% 29.94 in - South 16.1 mph 27.6 mph N/A   Unknown
8:30 AM 54.0 °F - 53.6 °F 99% 29.91 in - South 11.5 mph 20.7 mph N/A   Unknown
9:30 AM 53 °F - 53 °F 100% 29.94 in - SSW 12.7 mph - -  
9:30 AM 53.4 °F - 53.1 °F 99% 29.94 in - SSW 12.7 mph 28.8 mph N/A   Unknown
10:30 AM 55.9 °F - 54.0 °F 93% 29.92 in - South 12.7 mph 25.3 mph N/A   Unknown
11:30 AM 58.5 °F - 53.2 °F 83% 29.91 in - South 13.8 mph 23.0 mph N/A   Unknown
12:30 PM 60.6 °F - 50.9 °F 70% 29.89 in - South 17.3 mph 33.4 mph N/A   Unknown
1:30 PM 59.5 °F - 51.6 °F 75% 29.87 in - South 18.4 mph 31.1 mph N/A   Unknown
2:30 PM 59.2 °F - 51.6 °F 76% 29.88 in - South 17.3 mph 28.8 mph N/A   Unknown
3:30 PM 60 °F - 51 °F 65% 29.87 in - South 15.0 mph - -  
3:30 PM 60.3 °F - 51.4 °F 73% 29.87 in - South 15.0 mph 26.5 mph N/A   Unknown
4:30 PM 57.9 °F - 51.1 °F 78% 29.88 in - SSW 8.1 mph 19.6 mph N/A   Unknown
5:30 PM 54.1 °F - 49.1 °F 83% 29.90 in - SSE 8.1 mph - N/A   Unknown
6:30 PM 52.5 °F - 48.6 °F 86% 29.90 in - South 6.9 mph - N/A   Unknown
7:30 PM 50.0 °F - 46.6 °F 88% 29.90 in - South 4.6 mph - N/A   Unknown
8:30 PM 49.1 °F - 46.4 °F 90% 29.92 in - SW 8.1 mph - N/A   Unknown
9:30 PM 48 °F - 45 °F 86% 29.93 in - WSW 9.2 mph - -  
9:30 PM 48.0 °F - 45.1 °F 90% 29.93 in - WSW 9.2 mph - N/A   Unknown
10:30 PM 46.0 °F 41.4 °F 43.2 °F 90% 29.94 in - SW 9.2 mph - N/A   Unknown
11:30 PM 45.1 °F 40.3 °F 42.6 °F 91% 29.96 in - WSW 9.2 mph - N/A   Unknown